Torna al catalogo

ATLAS 5 CENTAUR DEB

LostHEO
NORAD 46871·DEBRIS·🇺🇸 United States

Lanciato Oct 17, 2018 da Cape Canaveral Space Force Station

Loading…

Prossimi Passaggi (prossime 24 ore)

TLE

ObsoletoSource: Space-Track

Epoca: Feb 8, 2024, 11:55 UTC

1 46871U 18079EC  24039.49658262 -.00000073  00000-0  00000+0 0  9991
2 46871  15.5596  85.2436 5848600 195.2303 134.3480  1.75112433 20687

Traccia ATLAS 5 CENTAUR DEB in tempo reale con AllMySat

Download on the App Store